Wind_Speed
6 7 7 8 8 8 8 9 9 9 9 10 11 11 12 12 13 13 14 14 14 15 16 17 17 18 20 21 22 23 23 24 25 25 26 26 26 26 26 27 28 28 29 30 31 31 31 31 30 28 26 25 23 20 18 18 17 16 16 16 17 17 18 18 19 19 19 19 19
7 7 8 8 8 8 9 9 9 9 10 10 11 11 12 13 13 13 14 14 15 16 16 17 18 19 20 21 22 22 23 24 25 25 26 26 26 26 26 27 27 28 29 29 30 31 31 31 29 27 26 25 23 21 19 18 18 18 17 17 17 17 17 17 18 18 18 18 18
7 7 8 8 8 9 9 9 10 10 11 11 11 12 12 13 13 13 14 14 15 16 17 17 18 19 20 21 21 22 22 23 24 25 25 25 25 26 26 27 27 28 29 29 30 30 31 31 29 27 25 25 24 22 21 19 18 18 17 16 16 16 16 16 17 17 17 17 17
7 8 8 8 9 9 9 10 10 11 11 12 12 12 12 13 13 13 14 15 16 16 17 17 18 19 20 20 21 22 22 23 23 24 24 24 25 25 26 27 27 28 28 28 30 31 31 31 28 25 24 24 25 24 22 21 19 18 17 16 16 15 16 16 17 17 17 17 17
7 8 8 8 9 9 10 10 11 11 12 12 12 12 12 13 13 13 14 15 16 16 17 18 18 19 19 20 21 22 22 22 23 23 23 24 25 25 26 26 27 27 27 28 29 30 31 30 27 24 23 22 22 23 24 23 21 19 17 16 16 15 16 16 17 18 18 18 17
7 8 8 9 9 9 10 10 11 11 12 12 13 13 13 13 13 14 15 16 16 17 17 18 18 18 19 20 21 21 22 22 22 22 23 24 24 25 25 26 26 26 27 27 28 29 30 28 25 23 22 22 22 23 25 25 22 19 17 17 15 15 16 17 18 18 19 19 19
8 8 9 9 9 10 10 10 11 12 12 12 13 13 14 14 15 15 16 16 16 17 17 17 17 18 19 20 21 21 21 21 22 22 23 23 24 25 25 26 26 26 26 27 27 28 28 27 24 22 22 22 21 22 24 25 23 21 18 16 16 16 16 17 19 20 20 21 22
8 9 9 9 10 10 10 11 11 12 12 13 13 14 14 15 15 16 16 16 16 16 16 17 17 18 19 20 20 20 20 21 21 22 22 23 24 24 25 25 25 25 26 26 26 27 26 25 23 22 22 22 21 22 23 24 24 22 19 17 17 17 18 18 19 20 21 22 23
8 9 9 9 10 10 10 11 12 12 13 13 14 14 15 15 16 16 16 15 15 16 16 17 18 19 19 20 20 20 20 20 20 21 22 23 23 24 24 24 24 24 25 25 26 26 25 24 22 21 21 21 21 21 22 23 23 22 20 18 18 18 19 19 20 21 22 23 23
9 9 9 9 9 10 10 11 12 13 13 14 14 14 15 15 15 15 15 15 16 16 17 17 18 19 19 19 19 19 19 19 20 21 21 22 23 23 24 24 24 24 24 24 25 25 24 23 22 22 22 22 21 21 22 22 22 22 21 19 20 20 21 21 21 22 22 23 23
9 9 9 9 10 10 11 11 12 13 13 13 14 14 14 14 15 15 15 15 16 16 17 17 18 18 18 18 18 18 18 19 19 20 21 21 22 23 23 23 23 23 23 24 24 24 23 23 23 23 22 21 20 20 21 21 21 21 21 21 21 21 22 23 23 23 23 23 23
9 9 9 9 10 10 11 11 12 12 13 13 13 14 14 14 14 15 15 15 16 16 17 17 17 18 18 18 18 18 18 19 19 19 20 21 21 22 22 22 23 23 22 23 23 23 23 23 23 23 22 21 20 20 20 21 21 21 21 21 21 21 22 23 23 24 24 24 24
9 9 9 9 10 10 11 11 12 12 12 13 13 13 14 14 14 15 15 15 16 16 16 17 17 17 17 17 18 18 18 18 19 19 19 20 20 21 22 22 22 22 22 22 23 23 23 24 24 23 22 21 20 20 20 20 20 20 20 20 21 21 21 22 23 23 23 24 24
9 9 9 10 10 10 11 11 11 12 12 12 13 13 13 14 14 14 15 15 15 16 16 17 17 17 17 17 18 18 18 18 18 18 19 19 20 20 21 21 21 22 22 23 22 22 23 23 23 23 22 21 20 20 19 19 19 19 19 19 20 21 21 22 22 22 22 23 23
9 9 9 9 10 10 10 11 11 11 12 12 13 13 14 14 14 14 14 15 15 16 16 16 17 17 17 18 18 18 18 18 18 18 18 19 19 20 20 21 21 22 23 24 23 22 22 22 23 22 22 20 20 19 19 19 19 19 19 19 19 20 21 21 21 21 21 21 22
9 9 9 9 10 10 10 11 11 11 12 12 13 13 14 14 14 14 14 15 15 15 16 16 17 17 17 17 18 18 17 17 17 17 17 18 19 20 20 21 21 21 23 25 24 22 21 21 21 22 21 20 19 19 19 19 19 20 19 19 20 21 21 20 20 21 21 20 20
9 9 9 9 10 10 10 11 11 12 12 13 14 14 14 14 14 14 15 15 15 15 16 17 17 17 17 17 17 17 17 17 17 17 17 18 19 20 20 21 20 21 22 25 24 22 20 19 20 21 20 19 18 18 18 19 20 20 20 20 21 22 22 21 20 20 20 20 19
9 9 9 9 10 10 11 12 12 13 13 14 14 14 14 14 14 15 15 15 15 16 16 17 17 17 17 17 17 17 17 17 16 17 17 18 18 19 20 21 20 20 21 24 24 21 18 17 19 19 19 18 17 18 18 19 20 20 21 21 21 22 22 21 21 20 20 20 19
9 9 9 9 10 10 11 12 13 13 14 14 14 14 14 15 15 15 15 15 15 16 16 17 17 17 17 17 17 17 17 17 17 17 17 17 18 19 20 20 20 20 21 23 23 19 16 15 17 18 17 17 17 17 18 19 19 20 20 21 22 22 22 22 21 21 21 20 19
9 9 9 9 10 11 11 12 13 14 14 14 14 15 15 15 15 15 15 15 15 15 16 16 17 17 17 17 17 17 17 17 16 17 17 17 18 18 19 20 19 19 20 22 22 18 15 14 16 17 16 16 16 16 17 18 18 19 20 21 22 23 23 22 21 21 21 21 20
9 9 9 9 10 11 12 13 13 14 14 14 14 15 15 15 15 15 15 15 15 15 15 16 16 17 17 17 17 17 17 17 16 16 17 17 17 18 19 19 18 18 20 22 22 18 14 13 14 16 16 15 15 15 16 16 17 18 19 21 22 23 23 23 21 21 21 21 21
9 9 9 10 11 11 12 13 13 14 14 14 14 14 14 14 14 14 15 14 14 14 15 15 16 16 17 17 17 17 17 17 17 17 17 17 17 18 18 18 18 18 19 22 23 19 15 12 13 15 16 15 14 14 14 15 15 17 18 20 22 23 24 23 22 21 20 20 21
9 9 10 10 11 12 12 13 14 14 14 14 14 14 14 14 14 14 14 14 14 14 15 15 16 16 16 17 17 17 17 17 17 17 17 17 17 18 18 18 17 17 19 21 23 21 16 12 12 13 15 15 14 13 13 13 14 15 17 19 21 22 23 23 22 21 20 20 19
9 9 10 10 11 12 12 13 13 14 14 14 14 14 14 14 14 14 14 14 14 14 15 15 16 16 16 16 16 16 16 17 17 17 17 17 17 18 18 18 17 17 19 21 22 21 18 13 10 11 14 15 15 13 12 12 13 14 16 17 18 20 21 22 21 20 19 19 18
9 10 10 11 11 12 12 13 13 14 14 14 13 13 14 14 14 14 14 14 14 14 15 15 16 16 16 16 16 16 16 16 17 17 17 18 18 18 18 18 17 18 19 21 21 22 20 16 11 10 12 14 14 13 12 12 13 14 14 15 16 17 19 20 20 19 18 18 18
9 10 11 11 12 12 13 13 13 13 13 13 13 13 13 13 14 14 14 14 14 15 15 15 16 16 15 15 15 15 15 16 16 17 17 17 18 18 18 18 18 19 20 21 21 21 22 19 14 10 10 12 13 13 12 12 13 13 13 13 13 14 16 17 17 17 17 17 17
10 11 12 12 12 13 13 13 13 13 13 13 13 13 13 13 13 14 14 14 14 15 15 15 15 15 15 15 15 15 16 16 16 17 17 17 18 18 18 18 18 19 20 20 20 21 22 22 18 13 10 9 11 11 12 12 13 13 12 12 12 12 13 14 15 16 16 17 17
11 12 12 13 13 13 13 13 13 13 13 13 13 13 13 13 14 14 14 14 14 15 15 15 14 14 14 14 15 15 16 17 17 17 17 17 18 18 18 18 19 19 19 20 20 20 21 22 22 18 13 9 9 10 11 12 13 13 12 11 11 11 12 12 13 14 15 16 16
12 12 12 13 13 13 13 12 12 12 12 13 13 13 13 13 14 14 14 14 14 14 14 14 14 14 14 15 16 16 17 17 17 17 17 17 18 18 18 19 19 19 19 20 20 20 21 21 23 22 18 13 9 9 10 11 12 13 12 12 11 11 11 11 12 13 14 14 15
12 12 12 13 13 12 12 12 12 12 12 12 12 12 13 13 13 14 14 14 14 14 14 14 15 15 16 16 17 17 17 17 17 17 17 18 18 19 19 19 19 20 20 20 20 20 20 21 22 23 22 17 12 10 10 11 12 13 13 13 12 12 11 11 11 12 12 13 14
12 12 12 12 12 12 12 12 12 12 12 12 12 12 13 13 13 13 14 14 14 14 14 15 15 16 17 17 17 17 17 17 17 17 18 18 19 19 19 20 20 20 20 20 20 20 20 21 21 22 23 22 17 13 11 12 13 14 15 15 14 13 13 12 12 11 11 12 13
12 12 12 12 12 12 12 11 12 12 12 12 12 12 12 13 13 13 13 13 14 14 14 15 15 16 17 17 17 17 17 18 18 18 18 18 19 20 20 20 20 20 20 20 20 20 21 21 21 22 22 22 20 16 14 13 14 16 16 16 16 15 15 14 13 12 12 12 12
12 12 12 12 12 12 12 11 12 12 12 12 12 12 12 12 13 13 13 13 13 13 14 14 15 16 16 17 17 17 18 18 18 18 19 19 19 20 20 20 20 19 19 20 21 21 21 21 21 21 21 21 20 19 17 16 16 17 17 18 18 17 16 15 14 14 14 13 13
12 12 12 12 12 12 11 11 11 12 12 12 12 12 12 12 13 13 13 13 13 13 13 14 14 15 16 16 17 17 18 18 18 18 19 19 20 20 20 20 20 20 20 21 21 22 22 21 21 21 21 21 20 19 18 17 17 18 18 19 19 18 17 17 16 16 15 15 13
12 12 12 12 12 11 11 11 11 12 12 12 12 12 12 12 12 13 13 13 13 13 13 14 14 15 15 16 16 17 17 18 18 19 19 20 20 20 21 21 21 21 21 21 22 22 22 21 21 21 21 21 20 19 18 18 18 18 19 19 20 20 19 18 17 16 16 15 15
12 11 12 12 11 11 11 11 11 12 12 12 12 12 12 12 12 12 12 12 13 13 13 14 14 15 15 15 16 16 17 17 18 19 19 19 20 20 21 21 21 22 22 22 22 22 22 22 22 21 21 21 20 20 19 19 18 18 19 19 20 21 20 19 18 16 16 16 15
11 11 11 11 11 11 11 11 12 12 12 12 12 12 12 12 12 12 12 12 13 13 14 14 14 15 15 15 16 16 17 17 18 18 19 19 19 20 21 21 22 22 22 22 22 22 22 22 22 22 22 21 21 20 20 20 19 19 19 20 20 21 21 20 18 16 15 15 15
11 11 12 12 11 11 11 11 12 12 12 12 12 12 12 12 12 12 12 12 13 13 14 14 15 15 15 16 16 17 17 17 17 18 18 19 19 20 20 22 22 23 22 22 22 22 23 23 23 23 22 22 21 21 21 20 20 19 19 20 20 21 21 21 19 17 15 14 14
12 12 12 12 12 12 12 12 12 12 12 13 12 12 12 12 12 12 12 12 13 13 14 15 15 15 16 16 16 17 17 17 17 17 17 18 19 19 20 21 22 23 22 22 22 22 23 23 23 23 23 22 22 21 21 20 20 20 20 20 20 21 21 21 19 18 16 15 14
11 11 12 12 12 12 12 12 13 13 13 12 13 13 13 13 13 13 13 13 13 14 14 15 15 16 16 16 16 17 17 17 17 17 17 18 18 19 20 21 22 22 22 22 22 22 23 23 24 24 23 23 22 21 21 20 20 20 20 20 20 20 20 20 19 19 18 17 16
11 11 12 12 12 12 13 13 13 13 13 13 13 13 13 13 13 13 13 13 14 14 14 15 15 16 16 16 16 17 17 17 17 17 17 17 18 19 19 20 21 21 21 21 21 22 22 23 23 23 23 23 22 21 21 20 20 21 21 21 20 20 20 20 20 19 19 18 17
Wind_Direction
296 296 296 295 293 291 289 288 288 289 291 293 297 301 303 304 306 307 309 311 311 312 312 313 313 314 315 317 319 320 321 321 321 322 323 324 325 326 327 328 328 329 328 327 326 326 325 323 322 321 321 321 319 316 311 309 304 300 295 290 288 287 287 286 287 287 287 286 284
296 296 295 294 291 289 288 288 289 289 292 294 296 299 301 303 304 306 308 309 310 311 312 312 312 313 315 317 319 321 321 322 322 323 325 326 327 328 329 329 330 330 330 329 329 328 326 325 325 326 327 328 324 320 315 311 308 305 300 293 291 289 288 287 286 286 286 284 282
297 298 297 295 292 291 289 289 289 290 293 294 296 298 300 301 303 305 307 308 310 310 311 312 313 314 315 317 319 321 322 322 323 324 325 326 328 329 330 330 331 331 331 331 330 329 327 328 329 331 333 333 331 327 322 317 310 307 303 297 294 292 291 289 288 287 285 283 281
297 298 298 295 293 291 289 288 289 291 294 295 296 297 298 299 301 304 306 308 310 311 312 312 313 314 315 316 318 320 322 323 324 325 326 327 328 330 331 331 332 332 332 333 332 331 331 331 333 335 336 335 337 336 333 326 318 311 306 303 300 297 294 291 290 288 286 283 281
297 298 297 295 294 292 290 289 290 292 294 295 296 296 297 299 302 304 307 310 311 312 312 312 313 313 314 316 318 320 322 323 324 325 326 327 328 330 331 332 332 333 333 334 335 334 334 334 335 337 338 337 339 341 341 337 330 322 315 311 306 300 297 295 292 290 287 284 282
297 297 297 295 294 292 291 290 291 292 294 294 294 295 296 299 302 305 308 310 311 311 312 313 313 313 314 315 317 319 321 323 324 325 326 327 328 330 331 332 333 333 334 335 335 336 337 337 337 338 340 341 343 345 347 346 344 337 328 321 311 305 301 298 295 292 289 287 284
296 297 296 294 293 291 290 290 291 293 294 294 293 293 295 298 301 303 306 308 310 312 313 314 314 314 315 316 317 319 321 322 324 326 327 327 328 329 331 332 333 334 335 336 336 337 339 339 339 340 341 343 345 348 350 353 354 350 341 329 321 314 306 302 299 296 294 292 288
295 296 295 294 292 291 290 290 292 293 294 293 293 293 295 297 299 302 305 308 310 312 313 314 314 314 315 315 317 318 319 321 324 325 327 328 329 330 331 332 333 335 336 337 337 337 339 340 340 341 341 343 344 347 350 354 356 356 350 339 330 324 318 311 307 304 301 298 295
294 295 295 294 292 291 292 292 292 293 293 293 292 293 294 296 299 302 304 307 309 311 313 313 314 314 315 315 315 317 319 320 323 325 326 327 328 330 331 332 333 335 337 338 337 337 338 340 340 340 340 341 341 343 347 351 355 356 354 348 342 336 330 325 320 316 313 310 305
293 294 294 293 292 292 293 293 294 293 293 293 292 293 295 296 298 301 303 305 308 310 312 313 314 314 314 314 314 315 317 319 321 324 326 327 328 329 331 332 333 335 336 337 337 337 338 338 338 337 337 338 340 341 344 348 351 353 354 354 351 349 346 343 340 336 332 327 321
291 292 293 292 292 293 294 295 295 295 295 294 294 294 295 297 298 300 302 304 306 308 310 312 313 314 313 313 313 315 316 318 320 322 324 326 328 329 330 332 333 334 335 337 338 338 337 337 336 335 334 335 337 339 341 344 347 349 351 354 355 356 356 355 354 353 350 347 343
289 291 291 290 291 293 294 295 296 296 296 296 295 296 297 298 299 300 302 303 305 306 309 311 312 312 312 312 312 314 315 317 319 321 323 325 327 328 330 331 333 334 334 336 339 339 336 335 334 333 332 333 335 337 339 341 343 345 347 350 353 355 356 357 358 359 358 358 358
288 289 290 290 291 293 294 295 296 297 297 297 297 298 298 299 300 302 303 303 305 306 308 310 310 311 311 311 311 312 314 316 318 320 322 324 326 327 329 331 333 334 335 336 338 338 335 333 332 331 331 331 333 335 337 339 341 342 343 346 349 351 353 355 357 358 359 360 1
287 288 289 290 291 293 294 296 296 297 298 299 299 300 301 301 302 302 303 304 305 306 307 308 309 310 310 310 310 311 313 315 317 319 321 323 324 326 328 330 332 334 335 337 337 337 334 331 330 330 330 330 331 334 336 338 340 341 342 343 345 347 350 352 355 356 357 357 357
286 287 288 290 291 293 294 296 297 298 299 300 301 302 303 303 303 303 303 303 304 305 306 308 309 309 309 309 309 310 312 314 316 318 320 322 324 325 327 328 330 333 336 337 337 335 333 330 329 330 330 331 333 335 338 340 341 342 342 342 343 345 348 350 352 354 355 354 354
285 287 288 289 291 292 294 296 297 298 299 300 302 303 303 303 303 303 303 303 304 305 306 307 308 308 309 309 309 310 311 313 315 317 319 321 323 324 325 326 328 331 334 337 336 334 332 330 330 332 333 334 337 340 342 344 345 344 343 343 343 345 347 349 350 352 353 353 352
284 286 288 289 291 292 293 295 297 298 298 299 301 302 303 302 302 302 302 302 303 304 305 306 307 308 308 308 309 309 311 312 314 316 317 319 321 322 323 324 326 328 332 335 334 332 330 330 332 336 339 342 345 348 349 350 350 349 347 346 345 346 347 348 349 350 351 351 350
282 285 287 289 290 291 293 295 296 297 298 299 300 300 301 301 300 300 300 301 301 303 304 306 307 307 307 307 308 309 310 311 312 313 314 316 318 319 321 322 324 326 329 332 333 331 328 328 334 340 345 349 353 356 356 356 354 352 351 349 349 348 348 349 349 349 349 349 347
280 284 286 288 290 292 293 294 296 297 298 299 299 299 299 299 299 299 299 300 301 302 304 305 306 307 307 307 307 308 309 309 310 311 312 314 316 318 320 321 324 325 327 331 333 331 327 327 336 345 351 355 359 1 1 359 356 354 353 353 353 352 352 351 351 350 349 348 346
278 282 285 288 291 292 294 295 296 298 298 298 298 298 298 298 298 298 298 299 301 302 304 305 306 306 307 307 308 308 309 308 309 309 311 313 315 316 319 321 323 324 326 331 334 331 325 325 338 347 354 358 2 3 2 359 356 355 355 355 356 356 356 355 353 352 350 349 347
276 281 285 288 291 293 295 296 297 298 299 298 298 298 298 298 298 298 298 300 301 302 303 304 305 306 307 308 309 310 310 308 308 308 310 312 313 316 318 320 322 323 325 330 334 332 324 322 334 345 353 359 3 3 360 355 353 354 357 358 359 359 359 357 355 353 351 349 347
275 280 285 289 291 293 295 297 298 299 299 299 298 298 298 298 298 298 299 300 301 302 303 304 305 306 307 308 308 308 308 307 307 307 309 310 312 315 317 319 321 321 323 327 332 330 322 316 326 339 349 356 0 360 355 348 347 352 358 1 1 0 358 356 354 351 349 347 346
275 280 286 289 292 295 297 298 299 299 299 299 298 298 298 298 298 298 299 300 300 301 302 303 304 305 306 306 306 306 306 306 306 307 308 310 312 314 317 319 320 320 321 325 328 326 319 311 317 330 342 350 355 353 346 339 340 347 355 1 2 360 357 353 350 347 344 342 342
276 281 285 289 293 295 297 299 299 299 299 298 299 298 298 297 298 298 299 299 299 300 301 302 303 304 303 303 304 304 305 306 306 307 308 310 311 314 316 318 319 319 320 324 325 322 317 310 311 323 334 344 348 346 337 330 331 338 347 354 356 356 353 350 346 342 339 337 337
276 280 284 288 292 295 297 299 299 299 299 299 299 299 298 297 297 297 298 298 298 299 299 300 301 301 301 302 303 304 305 306 307 308 308 310 311 313 315 316 317 317 319 323 323 322 319 313 311 317 328 337 342 339 330 323 324 329 336 343 348 349 348 346 343 340 337 336 336
275 279 284 287 292 295 298 299 299 299 298 299 299 299 298 297 297 296 296 296 297 298 299 299 299 299 300 301 303 305 306 307 308 308 308 308 310 311 313 314 315 316 318 320 321 323 322 319 312 312 322 332 335 331 324 319 319 322 326 332 340 344 344 342 340 338 337 337 337
273 278 283 288 293 297 300 302 301 299 298 299 299 299 298 298 297 296 294 294 295 297 298 298 297 298 299 301 303 305 307 308 308 308 308 308 309 310 312 313 314 315 316 317 319 322 324 323 317 312 313 322 325 322 317 313 313 314 317 323 333 340 343 342 340 339 338 337 337
269 275 283 290 295 300 303 305 302 299 298 299 300 300 299 298 296 295 294 294 295 296 297 297 297 297 298 300 302 304 306 307 308 309 309 308 309 310 310 311 312 313 314 316 318 320 323 326 324 319 311 308 311 312 309 308 307 308 310 315 324 333 340 343 343 341 339 337 337
266 275 283 290 296 301 304 304 300 298 298 299 300 301 300 299 297 296 295 294 294 295 295 296 296 297 297 299 300 303 305 307 308 309 309 309 308 309 309 310 311 311 312 314 317 318 321 324 326 323 316 304 301 304 305 303 303 304 306 307 312 321 330 337 341 341 339 337 336
266 275 283 290 296 300 302 301 297 296 297 299 300 302 302 301 299 297 296 295 294 294 295 296 296 296 296 297 299 301 303 306 307 308 308 308 308 308 308 309 310 310 310 312 315 317 319 321 324 324 321 311 304 300 300 299 300 301 302 301 302 307 315 324 332 336 336 335 334
266 274 282 289 295 298 299 299 296 295 296 298 300 302 303 303 302 300 299 297 297 296 296 296 296 296 296 297 298 300 302 304 306 306 307 307 307 307 307 308 309 308 309 310 312 314 316 318 321 323 323 320 314 308 303 300 299 298 297 295 294 296 300 308 317 324 329 331 332
266 274 281 287 292 294 296 296 294 293 294 297 299 301 303 304 303 303 302 301 300 299 298 298 297 297 297 298 298 299 301 303 304 305 305 306 306 306 307 307 307 307 307 308 310 312 314 316 318 320 322 323 322 319 313 306 300 297 295 293 291 290 290 295 302 310 317 323 327
266 273 279 283 287 291 292 292 292 292 293 295 298 300 302 303 305 305 305 303 303 302 301 300 299 299 299 300 300 301 301 302 303 304 305 305 306 306 306 307 306 305 305 307 308 309 311 313 314 316 318 320 322 321 316 309 301 297 294 292 290 287 285 286 291 299 308 316 319
262 268 273 278 283 287 288 288 289 291 293 295 297 299 301 303 305 306 306 306 306 305 303 302 301 301 301 301 301 301 302 302 303 304 305 305 306 306 306 306 305 304 305 306 306 308 309 310 311 313 315 317 317 315 311 305 299 295 292 289 288 285 283 281 285 293 301 307 310
258 264 269 274 278 280 283 285 287 289 291 294 296 298 301 303 305 306 306 307 307 307 306 305 303 302 302 301 301 301 301 302 303 304 305 306 306 306 306 305 305 304 305 305 306 306 307 308 309 310 312 313 311 308 304 300 297 293 290 288 286 284 281 279 281 285 291 297 301
255 259 264 268 271 275 278 282 285 288 290 292 295 298 300 302 303 304 305 306 306 307 307 307 306 305 304 303 302 301 301 302 303 304 305 306 306 307 307 306 305 305 305 306 306 306 307 307 308 309 309 309 307 304 302 300 297 295 292 290 286 284 281 280 278 279 282 288 294
250 254 257 262 266 271 276 280 283 286 288 291 293 296 299 301 302 303 305 306 306 306 306 307 307 306 305 304 303 301 301 301 302 303 304 305 306 307 306 306 306 306 306 306 306 307 307 307 308 308 308 307 305 304 303 301 299 298 296 293 289 286 283 281 279 279 279 281 286
246 250 254 259 263 268 273 277 280 282 286 289 292 296 299 301 302 302 303 304 304 304 305 305 305 304 304 304 302 301 301 301 301 302 303 304 305 306 306 305 305 305 306 307 307 308 308 308 309 309 309 308 307 305 304 302 300 299 297 294 292 288 285 282 280 279 278 277 278
243 247 252 257 261 266 269 273 276 280 284 288 291 295 298 300 301 301 301 301 301 301 302 303 303 302 302 303 302 301 301 301 301 301 302 303 304 305 305 304 304 305 306 307 308 309 310 310 310 311 311 310 309 307 305 303 300 298 296 294 292 289 285 281 279 278 276 274 273
241 245 250 255 259 264 267 271 274 277 282 286 290 293 296 298 299 299 299 299 299 300 301 301 301 302 302 303 302 301 300 301 301 302 302 303 303 304 303 303 303 304 306 307 309 310 311 312 312 313 313 312 310 307 305 301 299 297 296 294 291 288 283 279 276 274 274 272 272
240 245 249 253 257 261 265 269 273 276 280 284 288 292 294 296 297 298 298 299 300 300 301 301 301 302 303 303 302 301 300 301 301 302 303 304 303 303 302 301 302 303 304 306 308 310 311 312 312 313 313 312 310 307 303 300 297 295 294 293 290 287 283 278 274 272 270 269 269
Height
881 881 880 880 879 878 878 877 876 876 875 874 873 872 871 870 869 868 867 866 865 863 862 861 859 858 856 855 854 852 851 849 847 846 844 843 841 839 837 836 834 832 829 827 824 821 818 815 813 810 808 806 803 802 800 799 797 796 795 794 792 791 790 789 788 787 786 786 785
881 880 880 879 878 878 877 876 876 875 874 873 872 872 871 870 869 867 867 865 864 863 862 860 859 857 856 854 853 852 850 848 847 845 843 842 840 839 837 835 833 831 829 827 824 821 818 815 812 810 807 805 803 801 799 798 797 795 794 792 792 790 789 788 787 786 785 784 783
880 879 879 878 878 877 877 876 875 874 874 873 872 871 870 869 868 867 866 865 863 862 861 860 858 857 855 854 852 851 850 848 847 845 843 841 840 838 837 835 832 831 828 826 823 821 817 815 812 810 808 805 803 801 799 797 796 794 793 792 791 790 788 787 786 784 783 782 781
879 878 878 877 877 876 876 875 874 874 873 872 871 870 869 868 867 866 865 864 863 862 861 859 858 856 855 853 852 851 849 848 846 844 842 841 839 838 836 834 832 830 828 826 823 820 817 815 812 810 808 806 803 801 799 797 795 794 792 791 790 789 788 786 785 783 782 781 779
878 878 877 877 876 876 875 874 873 873 872 871 871 870 869 868 867 866 865 863 862 861 860 858 857 856 854 853 851 850 848 847 846 844 842 841 839 837 835 834 832 830 827 825 823 820 817 815 812 810 808 806 804 802 799 797 795 794 792 791 790 788 787 785 784 782 781 779 778
877 877 877 876 875 875 874 873 873 872 871 871 870 869 868 867 866 865 864 863 862 860 859 858 857 855 854 852 851 849 848 846 845 843 842 840 838 837 835 833 831 829 827 825 823 820 818 815 813 811 808 806 804 802 800 797 796 794 792 791 789 788 787 785 783 782 780 778 777
877 876 876 875 874 874 873 872 872 871 871 870 869 868 867 866 865 864 863 862 861 859 858 857 856 854 853 852 850 849 847 846 844 843 841 840 838 836 834 832 831 829 827 825 823 820 818 816 813 811 809 807 805 802 800 798 796 794 792 791 789 787 786 784 782 781 779 777 776
876 875 875 874 873 873 872 872 871 871 870 869 868 867 866 865 864 863 862 861 860 859 857 856 855 854 852 851 849 848 847 845 844 842 841 839 837 836 834 832 830 828 827 825 823 821 818 816 814 812 810 807 806 803 801 799 797 795 793 791 789 787 785 783 782 780 778 776 774
875 874 874 873 873 872 872 871 870 870 869 868 867 866 866 865 864 862 862 860 859 858 857 856 854 853 852 850 849 847 846 845 843 842 840 839 837 835 833 832 830 828 827 825 822 821 818 817 814 812 810 808 806 804 802 800 797 795 793 791 789 787 786 784 782 780 778 776 774
874 874 873 872 872 872 871 870 869 869 868 867 866 865 865 864 863 862 861 860 858 857 856 855 854 852 851 849 848 847 846 844 843 842 840 838 837 835 833 832 830 828 826 825 822 820 818 817 815 813 811 809 807 805 802 800 798 796 794 792 790 788 786 784 782 780 778 776 774
873 873 872 872 871 871 870 869 869 868 867 866 865 864 864 863 862 861 860 859 857 857 855 854 853 852 850 849 847 846 845 844 842 841 839 838 837 835 833 831 829 828 826 824 823 821 818 816 814 812 811 809 807 805 803 801 798 797 794 792 791 789 787 785 783 781 779 777 775
872 872 872 871 870 870 869 868 868 867 866 865 864 863 863 862 861 860 859 858 857 856 854 853 852 851 849 848 847 845 844 843 842 840 839 837 836 834 832 831 829 827 826 824 823 821 819 817 814 812 811 809 807 805 803 801 799 797 795 793 791 789 787 785 783 782 780 778 776
872 871 871 870 870 869 868 868 867 866 865 864 863 863 862 861 860 859 858 857 856 855 853 852 851 850 849 847 846 845 843 842 841 840 838 837 835 834 832 830 829 827 826 824 823 821 819 816 814 812 811 808 807 805 803 801 799 797 796 793 792 790 788 786 784 782 781 778 777
871 870 870 869 869 868 867 867 866 865 864 863 863 862 861 860 859 858 857 856 855 854 852 851 850 849 848 847 845 844 843 842 840 839 838 836 835 833 832 830 828 827 825 824 822 821 819 816 814 812 811 809 807 805 803 802 800 798 796 794 792 790 788 787 785 783 781 779 777
870 870 869 868 868 867 867 866 865 864 863 863 862 861 860 859 858 857 856 855 854 853 852 851 849 848 847 846 844 843 842 841 839 838 837 836 834 832 831 829 828 826 825 823 822 820 818 816 814 812 810 808 807 805 803 802 800 798 797 795 793 791 789 787 786 784 782 780 779
869 869 868 868 867 867 866 865 865 864 863 862 861 860 859 858 857 856 855 854 853 852 851 850 848 847 846 845 843 842 841 840 839 837 836 835 833 832 830 829 827 826 824 823 821 820 818 816 814 812 810 808 807 805 803 802 800 798 797 795 793 792 790 788 786 785 783 781 780
868 868 867 867 866 866 865 864 864 863 862 861 860 859 858 857 856 855 854 853 852 851 850 849 847 846 845 844 842 841 840 839 838 837 835 834 832 831 829 828 827 825 824 822 821 819 817 816 814 812 810 808 807 805 803 802 800 798 797 795 794 792 790 788 787 785 783 782 780
867 867 867 866 865 865 864 863 863 862 861 860 859 858 857 857 856 854 853 852 851 850 849 848 847 845 844 843 842 840 839 838 837 836 834 833 832 830 829 827 826 825 823 822 820 819 817 816 814 812 810 808 807 805 803 802 800 798 797 795 794 792 790 789 787 786 784 782 781
867 866 866 865 864 864 863 862 862 861 860 859 858 857 857 856 854 853 852 851 850 849 848 847 846 844 843 842 841 840 838 837 836 835 833 832 831 830 828 827 825 824 823 822 820 818 817 816 814 812 810 808 807 805 803 802 800 798 797 795 794 792 790 789 787 786 784 783 781
866 865 865 864 863 863 862 862 861 860 859 858 857 856 855 854 853 852 851 850 849 848 847 846 845 843 842 841 840 839 837 837 835 834 832 831 830 829 827 826 825 823 822 821 819 817 816 815 813 812 810 808 806 805 803 801 800 798 797 795 794 792 790 789 787 786 784 783 782
865 864 864 863 862 862 861 861 860 859 858 857 856 855 854 853 852 852 850 849 848 847 846 845 844 842 841 840 839 838 837 835 834 833 832 831 829 828 827 825 824 823 821 820 818 817 815 814 813 811 810 808 806 804 803 801 800 798 797 795 793 792 790 789 787 786 784 783 782
864 863 863 862 862 861 860 859 859 858 857 856 855 854 853 852 851 850 849 848 847 846 845 844 843 842 841 839 838 837 836 834 833 832 831 830 828 827 826 825 823 822 820 819 817 816 814 813 812 811 809 807 806 804 803 801 800 798 797 795 793 792 790 789 787 786 784 783 782
863 862 862 861 861 860 859 858 858 857 856 855 854 853 852 851 850 849 848 847 846 845 844 843 842 841 840 838 837 836 835 834 832 831 830 829 827 826 825 824 822 821 820 818 816 815 813 812 811 810 808 807 805 804 802 801 800 798 796 794 793 791 790 788 787 786 784 783 782
862 861 861 860 859 859 858 857 857 856 855 854 853 852 851 850 849 848 847 846 845 844 843 842 841 840 839 837 837 835 834 833 832 830 829 828 827 825 824 823 822 820 819 817 815 814 812 811 809 808 807 806 805 803 802 801 800 798 796 794 792 791 790 788 787 785 784 783 782
860 860 860 859 858 858 857 856 856 855 854 853 852 851 850 849 848 847 846 845 844 843 842 841 840 839 838 837 836 835 833 832 831 829 828 827 826 824 823 822 821 819 818 816 815 813 812 810 809 807 806 805 804 803 802 801 799 798 796 794 792 791 789 788 787 785 784 783 782
859 859 858 858 857 857 856 855 854 853 853 852 851 850 849 848 847 846 845 844 843 842 841 840 839 838 837 836 835 834 832 831 830 829 827 826 825 823 822 821 820 818 817 816 814 813 811 809 808 807 806 804 803 802 801 800 799 797 796 794 792 791 789 787 786 785 784 782 781
858 858 857 857 856 856 855 854 853 852 852 851 850 849 848 847 846 845 844 843 842 841 840 839 838 837 836 835 834 833 832 830 829 828 827 825 824 822 821 820 819 817 816 815 813 812 810 809 807 806 805 804 802 802 801 799 798 797 796 794 792 790 788 787 786 785 783 782 781
857 857 856 856 855 854 854 853 852 852 851 850 849 848 847 847 845 844 843 842 841 840 839 838 837 837 835 834 833 832 831 830 828 827 826 824 823 822 821 819 818 817 815 814 813 811 810 808 807 806 804 803 802 801 800 798 797 796 795 794 792 790 788 787 785 784 783 782 780
856 855 855 855 854 853 852 852 852 851 850 849 848 847 847 846 845 843 842 842 841 840 838 837 837 835 834 833 832 831 830 829 827 826 825 823 822 821 820 818 817 816 814 813 812 811 809 808 806 805 803 801 800 799 799 798 797 796 794 793 792 790 788 786 785 783 782 781 780
855 854 854 853 853 852 852 851 851 850 849 848 847 847 846 845 844 843 842 841 840 839 838 837 836 834 833 832 831 830 829 827 827 825 824 822 821 820 818 817 816 815 813 812 811 810 808 807 806 804 802 801 800 798 797 797 796 795 793 792 791 789 787 786 784 782 782 780 779
853 853 853 852 852 851 851 850 850 849 848 847 847 846 845 844 843 842 841 840 839 838 837 836 835 834 832 831 830 829 828 827 825 824 823 822 820 819 817 816 815 813 812 811 810 809 807 806 805 803 802 801 799 798 797 796 795 794 793 791 790 788 787 785 783 782 780 779 778
852 852 852 851 851 850 850 849 849 848 847 847 846 845 844 843 842 841 840 839 838 837 836 835 834 832 832 830 829 828 827 826 824 823 822 821 819 818 816 815 814 812 811 810 809 808 807 805 804 803 801 800 799 797 796 795 794 793 792 790 789 787 786 784 782 781 779 778 777
851 851 851 850 850 849 849 848 848 847 847 846 845 844 843 842 841 840 839 838 837 836 835 834 833 832 830 829 828 827 826 825 823 822 821 820 818 817 815 814 812 811 810 809 808 807 805 804 803 802 801 799 798 797 795 794 793 791 790 788 787 786 784 783 781 779 778 777 776
850 850 850 849 849 848 848 847 847 847 846 845 844 843 842 841 840 839 838 837 836 835 834 833 832 831 830 828 827 826 825 823 822 821 820 818 817 816 814 812 811 810 809 807 807 805 804 803 802 801 800 798 797 795 794 792 791 789 788 787 785 784 783 781 780 778 777 775 774
849 849 848 848 848 847 847 847 846 846 845 844 843 842 841 840 839 838 837 836 835 834 833 832 831 830 828 827 826 825 824 822 821 820 819 817 816 814 813 811 810 808 807 806 805 804 803 802 801 799 798 797 795 794 792 790 789 787 786 785 783 782 781 780 778 777 776 774 773
847 848 847 847 847 847 846 846 845 845 844 843 842 841 840 839 838 837 837 836 834 833 832 831 830 829 827 827 825 824 823 822 820 819 818 816 815 813 812 810 808 807 806 805 804 802 801 800 799 798 797 796 794 792 790 789 787 786 785 783 782 781 779 778 777 776 774 773 772
847 847 847 846 846 845 845 845 844 843 843 842 841 840 839 838 837 837 836 835 833 832 831 830 829 828 827 826 824 823 822 821 820 818 817 815 814 812 811 809 807 806 804 803 802 801 800 799 798 797 796 794 792 791 789 788 787 785 784 782 781 779 778 777 776 775 773 772 771
845 845 845 845 845 844 844 843 843 842 842 841 840 839 838 837 837 836 835 834 833 832 830 829 828 827 826 824 823 822 821 820 819 817 816 815 813 812 810 808 806 804 803 802 801 800 799 798 797 796 795 793 792 790 789 787 786 784 782 781 780 778 777 776 774 773 772 770 769
844 844 844 844 843 843 843 842 842 841 841 840 839 838 837 837 836 835 834 833 832 831 829 828 827 826 825 823 822 821 820 819 818 817 815 814 812 811 809 807 805 803 802 801 800 799 798 797 796 794 793 792 791 789 788 786 784 783 781 780 778 777 775 774 773 772 770 769 767
842 843 843 842 842 842 842 841 841 840 839 839 838 837 836 835 834 834 833 832 831 830 828 827 826 825 824 822 821 820 819 818 817 816 814 813 812 810 808 807 805 803 802 801 800 798 797 796 795 793 792 791 790 788 787 785 783 782 780 778 776 774 773 772 771 769 768 767 765
841 841 841 841 841 841 840 840 839 839 838 838 837 836 835 834 833 832 832 831 830 829 827 826 825 824 823 822 820 819 818 817 816 814 813 812 811 809 807 806 804 802 801 800 799 798 797 795 794 792 791 790 788 787 786 784 782 780 778 776 774 772 771 769 768 767 765 764 763